EW3804 Weather Reports


Display with metric or nautical units.
time (UTC)temp
F
wind
direction
speed
MPH
gust
MPH
rain 1hr
in
rain 24hr
in
rain mn
in
humidity
%
barometer
mb
20210803193218 89 316 4.0 13.0 0.00 0.15 0.00 60 1007.7
20210803191732 87 48 6.0 13.0 0.00 0.15 0.00 61 1007.9
20210803190146 87 131 4.0 9.0 0.00 0.15 0.00 61 1008.0
20210803184704 88 22 1.0 11.0 0.00 0.19 0.00 63 1008.2
20210803183215 86 30 3.0 8.0 0.00 0.19 0.00 63 1008.5
20210803181604 87 41 6.0 10.0 0.00 0.19 0.00 62 1008.7
20210803180129 87 303 5.0 10.0 0.00 0.19 0.00 62 1008.8
20210803174733 86 23 3.0 10.0 0.00 0.19 0.00 63 1008.9
20210803173120 86 40 2.0 7.0 0.00 0.19 0.00 64 1009.1
20210803171716 85 34 7.0 10.0 0.00 0.19 0.00 66 1009.2
20210803170112 85 1 3.0 9.0 0.00 0.19 0.00 69 1009.4
20210803164607 83 58 5.0 9.0 0.00 0.19 0.00 71 1009.5
20210803163032 82 56 5.0 8.0 0.00 0.19 0.00 75 1009.7
20210803161529 82 34 5.0 10.0 0.00 0.19 0.00 74 1009.7
20210803160041 82 30 3.0 9.0 0.00 0.19 0.00 75 1009.7
20210803154545 82 25 3.0 11.0 0.00 0.19 0.00 77 1009.5
20210803153054 82 62 7.0 12.0 0.00 0.19 0.00 75 1009.5
20210803151527 81 51 7.0 11.0 0.00 0.19 0.00 78 1009.5
20210803150034 81 303 3.0 10.0 0.00 0.19 0.00 80 1009.6
20210803144526 80 27 2.0 10.0 0.00 0.19 0.00 82 1009.4
20210803143059 80 48 3.0 8.0 0.00 0.19 0.00 84 1009.4
20210803141509 78 326 2.0 7.0 0.00 0.19 0.00 88 1009.2
20210803140043 78 94 2.0 8.0 0.00 0.19 0.00 89 1009.2
20210803134506 77 58 4.0 8.0 0.00 0.19 0.00 89 1009.0
20210803133011 77 20 3.0 6.0 0.00 0.19 0.00 89 1008.9
20210803131507 77 316 2.0 5.0 0.00 0.19 0.00 90 1008.7
20210803130006 75 306 3.0 6.0 0.00 0.19 0.00 92 1008.6
20210803124714 74 310 3.0 4.0 0.00 0.19 0.00 93 1008.5
20210803123125 73 305 2.0 4.0 0.00 0.19 0.00 95 1008.4
20210803121649 73 300 3.0 5.0 0.00 0.19 0.00 94 1008.2
20210803120208 73 303 2.0 3.0 0.00 0.19 0.00 93 1008.1
20210803114639 73 295 2.0 3.0 0.00 0.19 0.00 93 1008.2
20210803113347 74 307 2.0 5.0 0.00 0.19 0.00 91 1008.1
20210803111801 75 317 3.0 5.0 0.00 0.19 0.00 91 1008.0
20210803110137 75 313 3.0 5.0 0.00 0.19 0.00 92 1008.0
20210803104646 75 311 3.0 5.0 0.00 0.19 0.00 92 1007.8
20210803103118 75 330 4.0 6.0 0.00 0.19 0.00 92 1008.0
20210803101724 75 327 4.0 7.0 0.00 0.19 0.00 91 1007.9
20210803100305 75 326 3.0 7.0 0.00 0.19 0.00 92 1007.9
20210803094610 75 318 4.0 8.0 0.00 0.19 0.00 92 1007.9
20210803093245 75 310 4.0 6.0 0.00 0.19 0.00 91 1007.9
20210803091545 76 309 3.0 6.0 0.00 0.19 0.00 92 1008.0
20210803090104 75 330 4.0 6.0 0.00 0.19 0.00 92 1008.1
20210803084643 76 310 4.0 7.0 0.00 0.19 0.00 92 1008.1
20210803083119 76 308 4.0 8.0 0.00 0.19 0.00 91 1008.3
20210803081644 77 310 2.0 3.0 0.00 0.19 0.00 89 1008.2
20210803080051 78 304 1.0 2.0 0.00 0.19 0.00 87 1008.1
20210803074607 79 304 0.0 0.0 0.00 0.19 0.00 87 1008.3
20210803073113 78 305 0.0 2.0 0.00 0.19 0.00 88 1008.4
20210803071612 78 314 1.0 2.0 0.00 0.19 0.00 88 1008.4
20210803070221 77 314 1.0 4.0 0.00 0.19 0.00 88 1008.4
20210803064552 78 316 0.0 2.0 0.00 0.19 0.00 87 1008.5
20210803063101 78 310 0.0 2.0 0.00 0.19 0.00 88 1008.4
20210803061642 77 321 0.0 2.0 0.00 0.19 0.00 90 1008.5
20210803060044 77 314 2.0 4.0 0.00 0.19 0.00 89 1008.6
20210803054551 76 309 0.0 3.0 0.00 0.19 0.00 90 1008.8
20210803053048 76 327 1.0 4.0 0.00 0.19 0.00 90 1008.9
20210803051521 77 311 1.0 3.0 0.00 0.19 0.00 89 1008.7
20210803050019 77 312 1.0 3.0 0.00 0.19 0.00 88 1008.8
20210803044525 78 323 0.0 0.0 0.00 0.19 0.19 88 1008.9
20210803043051 78 330 0.0 1.0 0.00 0.19 0.19 88 1008.7
20210803041528 77 330 0.0 1.0 0.00 0.19 0.19 89 1008.8
20210803040058 77 331 0.0 0.0 0.00 0.19 0.19 89 1008.9
20210803034527 76 34 0.0 0.0 0.00 0.19 0.19 90 1008.9
20210803033042 76 38 0.0 0.0 0.00 0.19 0.19 90 1008.8
20210803031604 76 38 0.0 0.0 0.00 0.19 0.19 90 1008.6
20210803030107 76 38 0.0 0.0 0.00 0.19 0.19 89 1008.4
20210803024513 76 38 0.0 0.0 0.00 0.19 0.19 89 1008.2
20210803023013 77 38 0.0 0.0 0.00 0.19 0.19 89 1008.1
20210803021609 77 39 0.0 3.0 0.00 0.19 0.19 88 1008.0
20210803020043 77 23 0.0 3.0 0.00 0.19 0.19 88 1007.8
20210803014515 77 28 1.0 4.0 0.00 0.19 0.19 87 1007.8
20210803013057 78 20 0.0 4.0 0.00 0.19 0.19 86 1007.8
20210803011537 78 14 6.0 10.0 0.00 0.19 0.19 83 1007.8
20210803010013 80 11 7.0 13.0 0.00 0.19 0.19 81 1007.5
20210803004509 81 33 4.0 7.0 0.00 0.19 0.19 80 1007.4
20210803003021 82 310 3.0 0.0 0.00 0.00 0.19 80 1007.2
20210803001512 82 307 3.0 6.0 0.00 0.19 0.19 80 1007.2
20210803000010 82 36 2.0 7.0 0.00 0.19 0.19 77 1007.2
20210802234540 83 18 5.0 11.0 0.00 0.19 0.19 77 1007.4
20210802233009 84 75 7.0 12.0 0.00 0.19 0.19 77 1007.3
20210802231557 85 37 2.0 4.0 0.00 0.19 0.19 73 1007.2
20210802230003 86 127 0.0 7.0 0.00 0.19 0.19 73 1007.0
20210802224704 84 318 2.0 10.0 0.00 0.19 0.19 76 1006.9
20210802223156 83 25 2.0 6.0 0.00 0.19 0.19 81 1006.9
20210802221645 84 53 3.0 7.0 0.00 0.19 0.19 80 1007.0
20210802220131 83 17 4.0 8.0 0.00 0.19 0.19 82 1007.0
20210802214930 81 47 3.0 5.0 0.00 0.19 0.19 84 1007.1
20210802213233 81 69 0.0 3.0 0.00 0.19 0.19 85 1007.2
20210802211652 80 53 2.0 5.0 0.00 0.19 0.19 85 1007.4
20210802210225 82 42 3.0 8.0 0.00 0.19 0.19 82 1007.8
20210802204634 82 302 2.0 8.0 0.00 0.19 0.19 83 1007.9
20210802203151 82 330 2.0 6.0 0.00 0.19 0.19 84 1008.0
20210802201608 80 311 4.0 8.0 0.06 0.19 0.19 85 1008.3
20210802194733 79 307 0.0 3.0 0.19 0.19 0.19 90 1008.6